TimeEDT,TemperatureF,Dew PointF,Humidity,Sea Level PressureIn,VisibilityMPH,Wind Direction,Wind SpeedMPH,Gust SpeedMPH,PrecipitationIn,Events,Conditions,WindDirDegrees,DateUTC
12:15 AM,75.2,75.2,100,-9999,10.0,Calm,Calm,-,N/A,Thunderstorm,Mostly Cloudy,0,2013-08-30 04:15:00
12:35 AM,75.2,75.2,100,-9999,10.0,Calm,Calm,-,N/A,,Overcast,0,2013-08-30 04:35:00
12:55 AM,75.2,75.2,100,-9999,10.0,Calm,Calm,-,N/A,,Overcast,0,2013-08-30 04:55:00
1:15 AM,75.2,75.2,100,-9999,10.0,Calm,Calm,-,N/A,Thunderstorm,Overcast,0,2013-08-30 05:15:00
1:35 AM,75.2,75.2,100,-9999,10.0,Calm,Calm,-,N/A,Rain-Thunderstorm,Light Thunderstorms and Rain,0,2013-08-30 05:35:00
1:55 AM,75.2,75.2,100,-9999,10.0,North,4.6,-,0.01,Rain,Light Rain,350,2013-08-30 05:55:00
2:15 AM,75.2,75.2,100,-9999,7.0,North,3.5,-,N/A,Rain-Thunderstorm,Light Thunderstorms and Rain,350,2013-08-30 06:15:00
2:35 AM,75.2,75.2,100,-9999,7.0,Calm,Calm,-,N/A,Thunderstorm,Overcast,0,2013-08-30 06:35:00
2:55 AM,75.2,75.2,100,-9999,10.0,North,3.5,-,N/A,Thunderstorm,Thunderstorm,10,2013-08-30 06:55:00
3:15 AM,73.4,73.4,100,-9999,10.0,NNW,5.8,-,N/A,,Mostly Cloudy,340,2013-08-30 07:15:00
3:35 AM,73.4,73.4,100,-9999,7.0,Calm,Calm,-,N/A,,Scattered Clouds,0,2013-08-30 07:35:00
3:55 AM,73.4,73.4,100,-9999,10.0,Calm,Calm,-,N/A,,Clear,0,2013-08-30 07:55:00
4:15 AM,71.6,71.6,100,-9999,10.0,Calm,Calm,-,N/A,,Clear,0,2013-08-30 08:15:00
4:35 AM,71.6,71.6,100,-9999,10.0,Calm,Calm,-,N/A,,Clear,0,2013-08-30 08:35:00
4:55 AM,71.6,71.6,100,-9999,10.0,Calm,Calm,-,N/A,,Clear,0,2013-08-30 08:55:00
5:15 AM,71.6,71.6,100,-9999,10.0,Calm,Calm,-,N/A,,Clear,0,2013-08-30 09:15:00
5:35 AM,71.6,71.6,100,-9999,7.0,Calm,Calm,-,N/A,,Clear,0,2013-08-30 09:35:00
5:55 AM,69.8,69.8,100,-9999,7.0,Calm,Calm,-,N/A,,Clear,0,2013-08-30 09:55:00
6:15 AM,69.8,69.8,100,-9999,5.0,Calm,Calm,-,N/A,,Clear,0,2013-08-30 10:15:00
6:35 AM,69.8,69.8,100,-9999,7.0,Calm,Calm,-,N/A,,Clear,0,2013-08-30 10:35:00
6:55 AM,69.8,69.8,100,-9999,7.0,Calm,Calm,-,N/A,,Clear,0,2013-08-30 10:55:00
7:15 AM,69.8,69.8,100,-9999,3.0,Calm,Calm,-,N/A,,Clear,0,2013-08-30 11:15:00
7:35 AM,69.8,69.8,100,-9999,5.0,Calm,Calm,-,N/A,,Clear,0,2013-08-30 11:35:00
7:55 AM,71.6,71.6,100,-9999,7.0,Calm,Calm,-,N/A,,Clear,0,2013-08-30 11:55:00
8:15 AM,71.6,71.6,100,-9999,10.0,Calm,Calm,-,N/A,,Clear,0,2013-08-30 12:15:00
8:35 AM,75.2,75.2,100,-9999,10.0,Calm,Calm,-,N/A,,Clear,0,2013-08-30 12:35:00
8:55 AM,77.0,77.0,100,-9999,10.0,Calm,Calm,-,N/A,,Mostly Cloudy,0,2013-08-30 12:55:00
10:15 AM,82.4,78.8,89,-9999,10.0,Calm,Calm,-,N/A,,Clear,0,2013-08-30 14:15:00
10:35 AM,84.2,77.0,79,-9999,10.0,North,4.6,-,N/A,,Clear,10,2013-08-30 14:35:00
10:55 AM,86.0,77.0,74,-9999,10.0,NE,4.6,-,N/A,,Clear,50,2013-08-30 14:55:00
11:15 AM,86.0,77.0,74,-9999,10.0,Calm,Calm,-,N/A,,Scattered Clouds,0,2013-08-30 15:15:00
11:35 AM,87.8,75.2,66,-9999,10.0,ENE,3.5,-,N/A,,Mostly Cloudy,70,2013-08-30 15:35:00
11:55 AM,87.8,73.4,62,-9999,10.0,ENE,5.8,-,N/A,,Mostly Cloudy,60,2013-08-30 15:55:00
12:15 PM,87.8,73.4,62,-9999,10.0,North,4.6,-,N/A,,Scattered Clouds,10,2013-08-30 16:15:00
12:35 PM,87.8,71.6,58,-9999,10.0,NNW,3.5,-,N/A,,Scattered Clouds,340,2013-08-30 16:35:00
12:55 PM,89.6,69.8,52,-9999,10.0,ESE,3.5,-,N/A,,Clear,110,2013-08-30 16:55:00
1:15 PM,89.6,69.8,52,-9999,10.0,Calm,Calm,-,N/A,Thunderstorm,Thunderstorm,0,2013-08-30 17:15:00
1:35 PM,87.8,68.0,52,-9999,10.0,North,4.6,-,N/A,,Scattered Clouds,350,2013-08-30 17:35:00
1:55 PM,87.8,69.8,55,-9999,10.0,West,9.2,-,N/A,,Scattered Clouds,270,2013-08-30 17:55:00
2:15 PM,87.8,71.6,58,-9999,10.0,West,6.9,-,N/A,,Scattered Clouds,280,2013-08-30 18:15:00
2:35 PM,89.6,69.8,52,-9999,3.0,NW,6.9,-,N/A,Rain,Rain,310,2013-08-30 18:35:00
2:55 PM,89.6,71.6,55,-9999,2.0,South,5.8,-,N/A,,Scattered Clouds,190,2013-08-30 18:55:00
3:15 PM,87.8,69.8,55,-9999,10.0,Calm,Calm,-,N/A,,Mostly Cloudy,0,2013-08-30 19:15:00
3:35 PM,87.8,69.8,55,-9999,10.0,Calm,Calm,-,N/A,,Scattered Clouds,0,2013-08-30 19:35:00
3:55 PM,89.6,68.0,49,-9999,10.0,WSW,4.6,-,N/A,,Scattered Clouds,240,2013-08-30 19:55:00
4:15 PM,89.6,68.0,49,-9999,10.0,SE,9.2,-,N/A,,Overcast,140,2013-08-30 20:15:00
4:35 PM,80.6,73.4,79,-9999,2.0,South,20.7,26.5,0.19,Rain-Thunderstorm,Heavy Thunderstorms and Rain,190,2013-08-30 20:35:00
4:55 PM,73.4,71.6,94,-9999,0.8,West,10.4,33.4,1.01,Rain-Thunderstorm,Heavy Thunderstorms and Rain,280,2013-08-30 20:55:00
5:15 PM,73.4,73.4,100,-9999,10.0,West,10.4,-,0.08,Rain-Thunderstorm,Light Thunderstorms and Rain,260,2013-08-30 21:15:00
5:35 PM,73.4,73.4,100,-9999,10.0,West,11.5,-,0.08,Thunderstorm,Thunderstorm,270,2013-08-30 21:35:00
5:55 PM,73.4,73.4,100,-9999,10.0,West,8.1,-,0.08,Thunderstorm,Scattered Clouds,280,2013-08-30 21:55:00
6:15 PM,75.2,75.2,100,-9999,10.0,WSW,5.8,-,N/A,Thunderstorm,Scattered Clouds,240,2013-08-30 22:15:00
6:35 PM,77.0,77.0,100,-9999,10.0,WSW,5.8,-,N/A,Thunderstorm,Mostly Cloudy,240,2013-08-30 22:35:00
6:55 PM,77.0,77.0,100,-9999,10.0,Calm,Calm,-,N/A,,Scattered Clouds,0,2013-08-30 22:55:00
7:15 PM,77.0,77.0,100,-9999,10.0,Calm,Calm,-,N/A,,Clear,0,2013-08-30 23:15:00
7:35 PM,75.2,75.2,100,-9999,10.0,Calm,Calm,-,N/A,,Clear,0,2013-08-30 23:35:00
7:55 PM,73.4,73.4,100,-9999,10.0,Calm,Calm,-,N/A,,Clear,0,2013-08-30 23:55:00
8:15 PM,73.4,73.4,100,-9999,10.0,Calm,Calm,-,N/A,,Clear,0,2013-08-31 00:15:00
8:35 PM,73.4,73.4,100,-9999,10.0,Calm,Calm,-,N/A,,Clear,0,2013-08-31 00:35:00
8:55 PM,73.4,73.4,100,-9999,10.0,SE,3.5,-,N/A,,Clear,130,2013-08-31 00:55:00
9:15 PM,73.4,73.4,100,-9999,10.0,Calm,Calm,-,N/A,,Clear,0,2013-08-31 01:15:00
9:35 PM,73.4,73.4,100,-9999,10.0,East,3.5,-,N/A,,Clear,100,2013-08-31 01:35:00
9:55 PM,73.4,73.4,100,-9999,10.0,Calm,Calm,-,N/A,,Scattered Clouds,0,2013-08-31 01:55:00
10:15 PM,73.4,73.4,100,-9999,10.0,Calm,Calm,-,N/A,,Overcast,0,2013-08-31 02:15:00
10:35 PM,75.2,75.2,100,-9999,10.0,Calm,Calm,-,N/A,,Overcast,0,2013-08-31 02:35:00
10:55 PM,75.2,75.2,100,-9999,10.0,Calm,Calm,-,N/A,,Overcast,0,2013-08-31 02:55:00
11:15 PM,75.2,75.2,100,-9999,10.0,Calm,Calm,-,N/A,,Overcast,0,2013-08-31 03:15:00
11:35 PM,75.2,75.2,100,-9999,7.0,Calm,Calm,-,N/A,,Overcast,0,2013-08-31 03:35:00
11:55 PM,75.2,75.2,100,-9999,10.0,Calm,Calm,-,N/A,,Overcast,0,2013-08-31 03:55:00